Location: Ellerstadt
(49.4644°N, 8.2615°E)
Time: 02:39:46
(UTC+00:00)

ISS - Pass Details

Date: 15 May 2021
Orbit: 417 x 422 km, 51.6° (Epoch: 15 June)

Event Time Altitude Azimuth Distance (km) Brightness Sun altitude
Rises 23:13:57 0° 275° (W) 2,368 0.2 -21.4°
Reaches altitude 10° 23:16:04 10° 280° (W) 1,505 -0.8 -21.4°
Maximum altitude 23:19:24 57° 0° (N) 504 -3.1 -21.4°
Drops below altitude 10° 23:22:45 10° 80° (E) 1,508 -0.8 -21.4°
Sets 23:24:53 0° 85° (E) 2,374 0.1 -21.4°
